[[{"header":{"parameterUnit":"m.s-1","parameterCategory":1,"la1":30.2991,"la2":30.254,"lo1":-89.0895,"lo2":-89.0444,"dy":0.0017,"dx":0.0017,"nx":28,"ny":28,"refTime":"2024-03-08T03:00:00:Z","depth":0,"parameterNumber":2,"parameterNumberName":"U-component_of_WINDS"},"data":[0,0,0,0,0,0,0,0,0,0,0,0,0,0,0,0,0,0,0,0,0,0,0,0,0,0,0,0,0,0,0,0,0,0,0,0,0,0,0,0,0,0,0,0,0,0,0,0,0,0,0,0,0,0,0,0,0,0,-6.9632,-6.9635,0,-6.9854,-6.9857,-6.986,-6.9882,-6.9879,-6.9877,-6.9875,-7.01,-7.0108,-7.0116,0,0,0,0,0,0,0,0,0,0,0,0,0,-6.9227,-6.9234,-6.9632,-6.9635,-6.9638,-6.9854,-6.9857,-6.986,-6.9882,-6.9879,-6.9877,-6.9874,-7.0098,-7.0107,-7.0117,0,0,0,0,0,0,0,0,0,0,0,0,0,-6.9421,-6.9237,-6.9631,-6.9675,-6.9681,-6.9853,-6.9857,-6.9861,-6.9883,-6.9879,-6.9876,-6.9873,-7.0094,-7.0106,-7.0118,-7.0262,0,0,-7.0156,-7.0161,0,0,0,0,0,0,0,0,-6.941,-6.9436,-6.9666,-6.9672,-6.9679,-6.9837,-6.9797,-6.9995,-6.9884,-6.9806,-6.9875,-6.9871,-7.0015,-7.0034,-7.0083,-7.0273,-7.0283,-7.0157,-7.0164,-7.0169,-7.0173,0,0,0,0,0,0,0,-6.9397,-6.9427,-6.972,-6.9669,-6.9677,-6.9683,-6.9707,-6.9835,-6.9927,-6.9812,-6.9815,-6.9841,-7.0018,-7.0071,-7.0088,-7.0286,-7.0156,-7.0167,-7.0175,-7.0179,-7.0608,-7.0612,0,0,0,0,0,0,-6.9375,-6.9415,-6.9713,-6.9727,-6.9534,-6.9693,-6.972,-6.979,-6.9926,-6.9943,-6.9843,-6.9841,-7.0052,-7.0074,-7.0096,-7.0274,-7.0169,-7.0181,-7.0188,-7.0604,-7.0609,-7.0614,0,0,0,0,0,0,-6.9367,-6.9402,-6.9704,-6.9572,-6.9611,-6.9704,-6.9782,-6.9796,-6.9849,-6.9949,-6.9966,-6.988,-7.005,-7.0079,-7.0222,-7.0282,-7.0186,-7.0197,-7.0599,-7.0606,-7.0611,-7.063,0,0,0,0,0,0,-6.9355,-6.9398,-6.9453,-6.9573,-6.9618,-6.9825,-6.9786,-6.9803,-6.987,-6.9869,-6.9988,-7.0005,-7.005,-7.0203,-7.0234,-7.0297,-7.0207,-7.0594,-7.0602,-7.0609,-7.0625,-7.0636,-7.0647,0,0,0,0,0,-6.934,-6.9449,-6.9456,-6.9492,-6.9688,-6.9828,-6.9854,-6.9904,-6.9875,-6.9931,-6.9997,-7.0001,-7.0272,-7.0218,-7.0252,-7.032,-7.0591,-7.06,-7.0609,-7.062,-7.0634,-7.0646,0,0,0,0,0,0,-6.9332,-6.9465,-6.9474,-6.9625,-6.9715,-6.9832,-6.9903,-6.9917,-7.0017,-7.0011,-7.007,-7.0097,-7.0237,-7.0294,-7.0231,-7.0469,-7.0428,-7.0445,-7.0425,-7.0439,-7.045,-7.0431,-7.0217,0,0,0,0,0,-6.9348,-6.9451,-6.9562,-6.9684,-6.9729,-6.9809,-6.9872,-6.9903,-6.9999,-7.0037,-7.0112,-7.0205,-7.0311,-7.0379,-7.0482,-7.0636,-7.0662,-7.07,-7.0711,-7.0719,-7.0731,-7.0817,-7.0835,-7.0644,-7.0644,-7.0643,0,0,-6.9381,-6.9467,-6.9527,-6.9684,-6.9758,-6.9863,-6.984,-6.9952,-7.003,-7.0053,-7.0192,-7.0252,-7.0359,-7.0508,-7.0577,-7.0559,-7.0791,-7.0731,-7.0737,-7.0744,-7.0828,-7.0846,-7.0862,-7.065,-7.0649,-7.0648,0,0,-6.9494,-6.957,-6.968,-6.9756,-6.9869,-6.9922,-6.9949,-7.0065,-7.0106,-7.0247,-7.0267,-7.0362,-7.0544,-7.062,-7.0682,-7.0831,-7.0838,-7.0864,-7.0918,-7.1001,-7.1016,-7.103,-7.1082,-7.11,-7.0876,-7.0876,-7.0876,0,-6.9519,-6.9678,-6.9734,-6.9847,-6.9915,-6.9945,-7.0057,-7.0128,-7.0268,-7.0315,-7.0295,-7.0525,-7.06,-7.0767,-7.0803,-7.0854,-7.0886,-7.0847,-7.101,-7.1024,-7.1038,-7.1088,-7.1107,-7.0878,-7.0878,-7.0878,-7.0878,0,-6.9705,-6.9815,-6.9891,-7.0028,-7.0106,-7.0217,-7.0291,-7.0364,-7.0391,-7.0447,-7.0592,-7.0683,-7.0806,-7.0849,-7.0875,-7.1021,-7.1007,-7.0998,-7.0958,-7.1057,-7.1105,-7.1124,-7.0881,-7.0881,-7.088,-7.0879,0,0,-6.9811,-6.9982,-7.0009,-7.0072,-7.0202,-7.0288,-7.0404,-7.0525,-7.0586,-7.0685,-7.0781,-7.0938,-7.0931,-7.1002,-7.1039,-7.1112,-7.1224,-7.1095,-7.1098,-7.1113,-7.139,-7.1392,-7.1414,-7.1232,-7.1236,-7.124,-7.138,0,-6.9937,-7.0141,-7.0197,-7.037,-7.0473,-7.0506,-7.0606,-7.0697,-7.0754,-7.0851,-7.0914,-7.1023,-7.1007,-7.1051,-7.1126,-7.1194,-7.1279,-7.1185,-7.1321,-7.1326,-7.1289,-7.1439,-7.1442,-7.1569,-7.1399,-7.1402,-7.1405,0,-7.0108,-7.0212,-7.0395,-7.0515,-7.056,-7.0649,-7.0766,-7.0859,-7.0964,-7.1001,-7.1083,-7.1114,-7.1236,-7.1194,-7.1363,-7.1297,-7.1358,-7.1401,-7.1407,-7.1418,-7.1367,-7.145,-7.1611,-7.1629,-7.1435,-7.1433,-7.143,0,-7.0165,-7.0351,-7.0485,-7.0539,-7.0682,-7.0743,-7.0806,-7.0908,-7.0979,-7.1083,-7.113,-7.1247,-7.1309,-7.14,-7.1462,-7.1426,-7.1626,-7.1589,-7.1658,-7.1657,-7.1694,-7.169,-7.1863,-7.174,-7.1739,-7.1739,-7.1739,0,-7.0297,-7.0407,-7.0512,-7.0594,-7.0719,-7.0786,-7.0908,-7.0972,-7.1064,-7.1159,-7.1196,-7.1285,-7.1364,-7.1464,-7.1514,-7.1646,-7.1675,-7.1708,-7.1719,-7.1702,-7.1697,-7.1738,-7.1729,-7.1744,-7.1743,-7.1742,-7.1741,0,-7.0378,-7.0453,-7.0601,-7.0727,-7.0762,-7.0848,-7.0956,-7.1037,-7.1099,-7.1219,-7.1251,-7.1347,-7.1467,-7.154,-7.1691,-7.1726,-7.187,-7.188,-7.1834,-7.1838,-7.1903,-7.1895,-7.2105,-7.2135,-7.1995,-7.1996,-7.1997,0,-7.0454,-7.054,-7.0677,-7.0744,-7.0808,-7.0915,-7.0989,-7.1059,-7.1134,-7.1264,-7.1329,-7.1453,-7.1554,-7.1745,-7.1828,-7.1945,-7.1955,-7.2022,-7.1972,-7.1954,-7.1953,-7.1946,-7.1954,-7.2027,-7.2029,-7.203,-7.203,0,-7.0582,-7.0616,-7.0721,-7.084,-7.0927,-7.1024,-7.1121,-7.1174,-7.1261,-7.1344,-7.1468,-7.1547,-7.1704,-7.1826,-7.1951,-7.2016,-7.2038,-7.2047,-7.2068,-7.2049,-7.2018,-7.2034,-7.1852,-7.204,-7.2039,-7.2038,-7.2037,-7.2037,-7.0661,-7.074,-7.0848,-7.0965,-7.1046,-7.1137,-7.122,-7.1293,-7.1398,-7.1531,-7.1568,-7.1698,-7.1805,-7.1976,-7.2045,-7.2148,-7.2137,-7.2169,-7.2177,-7.2182,-7.2183,-7.2006,-7.2171,-7.2171,-7.2171,-7.2171,-7.2171,0,-7.0788,-7.0861,-7.0968,-7.1103,-7.1195,-7.1212,-7.1321,-7.1396,-7.151,-7.1609,-7.171,-7.1854,-7.1973,-7.2068,-7.2191,-7.2256,-7.2269,-7.2285,-7.2279,-7.2294,-7.2186,-7.2153,-7.2273,-7.2273,-7.2273,-7.2273,-7.2273,-7.2273,-7.0864,-7.0998,-7.1046,-7.1222,-7.1294,-7.1422,-7.1483,-7.1568,-7.1647,-7.1806,-7.1906,-7.1968,-7.2066,-7.2198,-7.2309,-7.2334,-7.2376,-7.239,-7.2416,-7.2313,-7.2301,-7.229,-7.226,-7.24,-7.24,-7.2516,-7.2517,-7.2517]},{"header":{"parameterUnit":"m.s-1","parameterCategory":1,"la1":30.2991,"la2":30.254,"lo1":-89.0895,"lo2":-89.0444,"dy":0.0017,"dx":0.0017,"nx":28,"ny":28,"refTime":"2024-03-08T03:00:00:Z","depth":0,"parameterNumber":3,"parameterNumberName":"V-component_of_WINDS"},"data":[0,0,0,0,0,0,0,0,0,0,0,0,0,0,0,0,0,0,0,0,0,0,0,0,0,0,0,0,0,0,0,0,0,0,0,0,0,0,0,0,0,0,0,0,0,0,0,0,0,0,0,0,0,0,0,0,0,0,4.8156,4.8156,0,4.8214,4.8214,4.8215,4.8186,4.8184,4.8183,4.8181,4.8237,4.824,4.8243,0,0,0,0,0,0,0,0,0,0,0,0,0,4.802,4.8022,4.8156,4.8156,4.8157,4.8213,4.8214,4.8215,4.8186,4.8184,4.8182,4.818,4.8236,4.824,4.8243,0,0,0,0,0,0,0,0,0,0,0,0,0,4.8078,4.8023,4.8155,4.8149,4.8149,4.8213,4.8214,4.8215,4.8186,4.8184,4.8182,4.818,4.8235,4.8239,4.8244,4.8316,0,0,4.8257,4.8259,0,0,0,0,0,0,0,0,4.8075,4.8083,4.815,4.815,4.815,4.819,4.8187,4.8249,4.8187,4.8172,4.8181,4.8178,4.8223,4.8228,4.8244,4.8318,4.8321,4.8257,4.826,4.8262,4.8263,0,0,0,0,0,0,0,4.8071,4.808,4.8178,4.8151,4.8151,4.8144,4.815,4.8198,4.8209,4.8173,4.8171,4.8179,4.8223,4.824,4.8245,4.8322,4.8257,4.8261,4.8264,4.8265,4.8462,4.8464,0,0,0,0,0,0,4.8067,4.8077,4.8177,4.818,4.8106,4.8148,4.8154,4.8179,4.8209,4.8211,4.8181,4.8177,4.8234,4.824,4.8247,4.8336,4.8262,4.8266,4.8268,4.8459,4.8463,4.8465,0,0,0,0,0,0,4.8064,4.8076,4.8174,4.8128,4.814,4.8153,4.8181,4.8182,4.8199,4.8215,4.8216,4.8196,4.8232,4.8241,4.83,4.8337,4.8268,4.8272,4.8456,4.846,4.8464,4.8512,0,0,0,0,0,0,4.8061,4.8076,4.8103,4.8129,4.8143,4.8226,4.8183,4.8185,4.8207,4.8203,4.8229,4.8232,4.8231,4.8294,4.8304,4.8342,4.8275,4.8453,4.8458,4.8463,4.8508,4.8518,4.8526,0,0,0,0,0,4.8056,4.8113,4.8104,4.8116,4.8177,4.8228,4.8236,4.8235,4.821,4.8238,4.8249,4.8231,4.8332,4.83,4.8312,4.8351,4.8451,4.8457,4.8462,4.8503,4.8516,4.8526,0,0,0,0,0,0,4.8088,4.8116,4.8107,4.8174,4.82,4.8223,4.8258,4.8248,4.828,4.8274,4.8271,4.8277,4.8339,4.8351,4.8315,4.8425,4.8387,4.8396,4.8414,4.8426,4.8435,4.8431,4.8279,0,0,0,0,0,4.8103,4.8143,4.8165,4.8222,4.8236,4.8245,4.8267,4.8265,4.829,4.8301,4.8315,4.8341,4.8378,4.8403,4.8438,4.851,4.8516,4.8543,4.8552,4.856,4.8567,4.8609,4.8622,4.8485,4.8485,4.8485,0,0,4.8134,4.8154,4.8179,4.8229,4.8248,4.829,4.8254,4.8299,4.833,4.8307,4.8365,4.8377,4.8405,4.8472,4.8501,4.8483,4.8607,4.8567,4.8573,4.8576,4.8616,4.8629,4.8641,4.8489,4.8488,4.8487,0,0,4.8212,4.8231,4.8282,4.8304,4.8335,4.8341,4.8354,4.8381,4.8389,4.8447,4.8432,4.8469,4.8533,4.8555,4.8574,4.8666,4.8651,4.8677,4.8725,4.8766,4.8777,4.8786,4.8821,4.8833,4.8684,4.8685,4.8685,0,4.8247,4.8309,4.8309,4.8357,4.838,4.8364,4.8417,4.8437,4.8477,4.8494,4.8473,4.8557,4.8574,4.8647,4.867,4.8685,4.8701,4.8674,4.8775,4.8785,4.8794,4.8827,4.884,4.8688,4.8687,4.8687,4.8687,0,4.8351,4.8396,4.8433,4.8476,4.8503,4.8552,4.8561,4.8589,4.8585,4.8594,4.8655,4.8676,4.8717,4.8734,4.873,4.8808,4.8796,4.8776,4.8738,4.881,4.8841,4.8853,4.8692,4.8691,4.869,4.8689,0,0,4.8448,4.8494,4.8508,4.8528,4.8563,4.8597,4.8647,4.8689,4.8714,4.8743,4.8786,4.8843,4.8826,4.8848,4.8846,4.8882,4.8956,4.8857,4.8858,4.8876,4.9046,4.9062,4.9076,4.8947,4.895,4.8952,4.9044,0,4.853,4.8619,4.8623,4.8704,4.8746,4.8733,4.8777,4.8804,4.8815,4.8852,4.8863,4.8905,4.8878,4.8892,4.8927,4.894,4.899,4.8933,4.8987,4.8989,4.8981,4.9092,4.9108,4.9194,4.9056,4.9058,4.906,0,4.8637,4.8673,4.8759,4.8792,4.881,4.8849,4.889,4.8925,4.8956,4.8962,4.8989,4.8983,4.9035,4.8997,4.907,4.9031,4.9054,4.9064,4.9067,4.9072,4.9029,4.9101,4.9221,4.9235,4.9078,4.9077,4.9075,0,4.8702,4.8771,4.8833,4.8851,4.8889,4.8918,4.8936,4.8964,4.8991,4.9026,4.9043,4.9084,4.9106,4.9138,4.9144,4.9115,4.9217,4.9179,4.9224,4.9224,4.9246,4.9244,4.9372,4.9259,4.9259,4.9259,4.9259,0,4.8793,4.8847,4.8863,4.8901,4.8961,4.8965,4.9025,4.904,4.9067,4.9108,4.9099,4.9137,4.9142,4.9182,4.9187,4.9248,4.9257,4.9264,4.9265,4.9265,4.9265,4.928,4.9274,4.9262,4.9262,4.9261,4.926,0,4.8875,4.8888,4.8955,4.8988,4.8997,4.9041,4.9069,4.9106,4.9117,4.9169,4.9182,4.9199,4.9246,4.9256,4.931,4.9314,4.9387,4.9381,4.9377,4.9377,4.9422,4.9418,4.9565,4.9585,4.9458,4.9459,4.946,0,4.8933,4.8974,4.9013,4.9041,4.9061,4.9105,4.9133,4.9139,4.9169,4.921,4.9242,4.9289,4.9326,4.9402,4.942,4.9463,4.9458,4.9507,4.9465,4.9465,4.9461,4.9459,4.9464,4.9515,4.9516,4.9517,4.9518,0,4.9035,4.904,4.9081,4.9126,4.916,4.9195,4.9228,4.9251,4.9262,4.9296,4.9346,4.9375,4.9434,4.9481,4.9524,4.9542,4.9533,4.9532,4.9545,4.9546,4.9543,4.9547,4.94,4.9528,4.9527,4.9527,4.9526,4.9526,4.9107,4.9145,4.918,4.9226,4.9253,4.9285,4.9322,4.934,4.9382,4.9431,4.9432,4.9487,4.9519,4.9578,4.9599,4.9642,4.9626,4.9644,4.9649,4.9654,4.9659,4.9536,4.9649,4.9649,4.9649,4.9648,4.9648,0,4.921,4.9233,4.9276,4.9325,4.9362,4.9353,4.939,4.9422,4.947,4.9502,4.9541,4.9599,4.9646,4.9669,4.9715,4.9745,4.9742,4.9757,4.9755,4.976,4.9669,4.9654,4.9759,4.9759,4.9759,4.9759,4.9759,4.9759,4.9268,4.9333,4.9343,4.9421,4.9442,4.9497,4.952,4.955,4.9576,4.9642,4.9682,4.9697,4.9726,4.9775,4.9818,4.9823,4.9841,4.9859,4.9862,4.9777,4.9766,4.9755,4.9741,4.9862,4.9862,4.9949,4.995,4.9951]}]]